Find Flock 4be-35

NORAD ID: 60558 Int'l Des: 2024-149 Owner: PLAN Country: US Constellation: planet operational
LEOCIRCULARRETROGRADESSO

リアルタイム位置

3D地球を読み込み中...

Flock 4be-35について

説明を読み込み中...

次回通過

Passes for default location (London). Set your location on the main map for personalized predictions.

高度履歴

Loading altitude history...

軌道要素

1 60558U 24149CU 26106.65735715 .00075557 00000-0 12435-2 0 9994
2 60558 97.3728 190.6628 0005349 173.4029 186.7295 15.52078606 92875
Epoch: Apr 16, 2026 • Age: 5 hours

現在のステータス

高度 422.1 km
速度 7.67 km/s
衛星直下点 74.95°N, 118.48°W
打ち上げ日 Aug 16, 2024
運用期間 1.6 years
タイプ earth observation

技術仕様

分類 Payload
質量 5.70 kg
乾燥質量 5.70 kg
総質量 5.70 kg
長さ 0.30 m
直径 0.10 m
スパン 0.30 m
形状 Box+2 pan
製造者 PLAN
バスタイプ Cubesat 3U
フェーズステータス In Orbit
所有者/国 PLAN/US

Most Searched